This demonstration page uses our WeatherBlox Daily Observations layout. Learn more.

Left ArrowRight Arrow

34.02893, -84.19858

Hourly Observations for December 4, 2022

Temp ( °F °C ) Dew Point ( °F °C ) Humidity (%) Winds ( mph kmh ) Pressure ( in mb ) Visibility ( mi km ) Precip ( " mm )
12:12 am 00:12 Partly Cloudy 55 12.8 53 11.7 93 93 NW 5 7 30.28 1025 8 13 0.00 0.00
12:53 am 00:53 Mostly Clear with Mist and Fog 53 11.7 52 11.1 96 96 WNW 3 6 30.26 1025 6 10 0.00 0.00
1:02 am 01:02 Mostly Cloudy with Mist and Fog 53 11.7 52 11.1 96 96 W 6 9 30.26 1025 6 10 0.00 0.00
1:53 am 01:53 Cloudy 54 12.2 52 11.1 93 93 NW 9 15 30.25 1025 8 13 0.00 0.00
2:38 am 02:38 Partly Cloudy 51 10.6 50 10 96 96 NW 6 9 30.26 1025 10 16 0.00 0.00
2:53 am 02:53 Clear 50 10 49 9.4 96 96 WNW 3 6 30.24 1024 8 13 0.00 0.00
3:49 am 03:49 Clear with Mist and Fog 46 8 46 8 100 100 WSW 3 6 30.26 1025 2 2 0.00 0.00
3:53 am 03:53 Clear with Mist and Fog 47 8.3 47 8.3 100 100 WSW 3 6 30.24 1024 2 2 0.00 0.00
4:04 am 04:04 Clear 47 8.3 46 7.8 97 97 W 5 7 30.27 1025 8 13 0.00 0.00
4:53 am 04:53 Clear 46 7.8 45 7.2 96 96 W 5 7 30.24 1024 10 16 0.00 0.00
5:53 am 05:53 Clear 44 6.7 43 6.1 96 96 Calm 30.24 1024 10 16 0.00 0.00
6:53 am 06:53 Clear 43 6.1 42 5.6 97 97 Calm 30.24 1024 10 16 0.00 0.00
7:53 am 07:53 Sunny 42 5.6 41 5 96 96 WSW 3 6 30.26 1025 10 16 0.00 0.00
8:53 am 08:53 Sunny 45 7.2 42 5.6 90 90 Calm 30.27 1025 10 16 0.00 0.00
9:53 am 09:53 Sunny 49 9.4 43 6.1 80 80 Calm 30.27 1025 10 16 0.00 0.00
10:53 am 10:53 Sunny 52 11.1 42 5.6 69 69 Calm 30.26 1025 10 16 0.00 0.00
11:53 am 11:53 Sunny 55 12.8 42 5.6 62 62 VRB 5 7 30.22 1024 10 16 0.00 0.00
12:53 pm 12:53 Sunny 57 13.9 42 5.6 57 57 WNW 7 11 30.20 1023 10 16 0.00 0.00
1:53 pm 13:53 Sunny 58 14.4 44 6.7 60 60 W 9 15 30.18 1022 10 16 0.00 0.00
2:53 pm 14:53 Mostly Sunny 57 13.9 46 7.8 67 67 NW 8 13 30.16 1022 10 16 0.00 0.00
3:53 pm 15:53 Partly Cloudy 56 13.3 46 7.8 69 69 NW 9 15 30.17 1022 10 16 0.00 0.00
4:53 pm 16:53 Sunny 55 12.8 42 5.6 62 62 WNW 8 13 30.17 1022 10 16 0.00 0.00
5:53 pm 17:53 Clear 53 11.7 38 3.3 56 56 W 5 7 30.16 1021 10 16 0.00 0.00
6:53 pm 18:53 Mostly Clear 52 11.1 39 3.9 61 61 W 6 9 30.18 1022 10 16 0.00 0.00
7:53 pm 19:53 Cloudy 52 11.1 38 3.3 59 59 WNW 3 6 30.17 1022 10 16 0.00 0.00
8:53 pm 20:53 Cloudy 51 10.6 38 3.3 61 61 Calm 30.14 1021 10 16 0.00 0.00
9:53 pm 21:53 Cloudy 51 10.6 39 3.9 63 63 Calm 30.13 1020 10 16 0.00 0.00
10:53 pm 22:53 Cloudy 51 10.6 37 2.8 58 58 NNW 5 7 30.15 1021 10 16 0.00 0.00
11:53 pm 23:53 Cloudy 50 10 37 2.8 61 61 Calm 30.16 1021 10 16 0.00 0.00

Powered by AerisWeather